Time,TemperatureF,DewpointF,PressureIn,WindDirection,WindDirectionDegrees,WindSpeedMPH,WindSpeedGustMPH,Humidity,HourlyPrecipIn,Conditions,Clouds,dailyrainin,SoftwareType,DateUTC
2013-02-28 00:00:00,27.0,-99.9,-100.00,WNW,302,5.0,14.0,-999,0.00,,,0.23,,2013-02-28 06:00:00,
2013-02-28 00:42:00,27.0,-99.9,-100.00,WNW,302,5.0,14.0,-999,0.00,,,0.23,,2013-02-28 06:42:00,
2013-02-28 00:52:00,27.0,-99.9,-100.00,WNW,302,5.0,14.0,-999,0.00,,,0.23,,2013-02-28 06:52:00,
2013-02-28 01:00:00,25.0,-99.9,-100.00,NW,319,5.0,16.0,-999,0.00,,,0.23,,2013-02-28 07:00:00,
2013-02-28 01:42:00,25.0,-99.9,-100.00,NW,319,5.0,16.0,-999,0.00,,,0.23,,2013-02-28 07:42:00,
2013-02-28 01:52:00,25.0,-99.9,-100.00,NW,319,5.0,16.0,-999,0.00,,,0.23,,2013-02-28 07:52:00,
2013-02-28 02:00:00,25.0,-99.9,-100.00,WNW,299,6.0,21.0,-999,0.00,,,0.23,,2013-02-28 08:00:00,
2013-02-28 02:43:00,25.0,-99.9,-100.00,WNW,299,6.0,21.0,-999,0.00,,,0.23,,2013-02-28 08:43:00,
2013-02-28 02:53:00,25.0,-99.9,-100.00,WNW,299,6.0,21.0,-999,0.00,,,0.23,,2013-02-28 08:53:00,
2013-02-28 03:00:00,25.0,-99.9,-100.00,NW,314,4.0,17.0,-999,0.00,,,0.23,,2013-02-28 09:00:00,
2013-02-28 03:42:00,25.0,-99.9,-100.00,NW,314,4.0,17.0,-999,0.00,,,0.23,,2013-02-28 09:42:00,
2013-02-28 03:53:00,25.0,-99.9,-100.00,NW,314,4.0,17.0,-999,0.00,,,0.23,,2013-02-28 09:53:00,
2013-02-28 04:00:00,25.0,-99.9,-100.00,NW,308,5.0,18.0,-999,0.00,,,0.23,,2013-02-28 10:00:00,
2013-02-28 04:42:00,25.0,-99.9,-100.00,NW,308,5.0,18.0,-999,0.00,,,0.23,,2013-02-28 10:42:00,
2013-02-28 04:52:00,25.0,-99.9,-100.00,NW,308,5.0,18.0,-999,0.00,,,0.23,,2013-02-28 10:52:00,
2013-02-28 05:00:00,23.0,-99.9,-100.00,NW,314,4.0,14.0,-999,0.00,,,0.23,,2013-02-28 11:00:00,
2013-02-28 05:42:00,23.0,-99.9,-100.00,NW,314,4.0,14.0,-999,0.00,,,0.23,,2013-02-28 11:42:00,
2013-02-28 05:53:00,23.0,-99.9,-100.00,NW,314,4.0,14.0,-999,0.00,,,0.23,,2013-02-28 11:53:00,
2013-02-28 06:00:00,24.0,-99.9,-100.00,NW,313,4.0,24.0,-999,0.00,,,0.23,,2013-02-28 12:00:00,
2013-02-28 06:43:00,24.0,-99.9,-100.00,NW,313,4.0,24.0,-999,0.00,,,0.23,,2013-02-28 12:43:00,
2013-02-28 06:53:00,24.0,-99.9,-100.00,NW,313,4.0,24.0,-999,0.00,,,0.23,,2013-02-28 12:53:00,
2013-02-28 07:00:00,24.0,-99.9,-100.00,NW,306,4.0,16.0,-999,0.00,,,0.23,,2013-02-28 13:00:00,
2013-02-28 07:42:00,24.0,-99.9,-100.00,NW,306,4.0,16.0,-999,0.00,,,0.23,,2013-02-28 13:42:00,
2013-02-28 07:52:00,24.0,-99.9,-100.00,NW,306,4.0,16.0,-999,0.00,,,0.23,,2013-02-28 13:52:00,
2013-02-28 08:00:00,25.0,-99.9,-100.00,NW,310,4.0,10.0,-999,0.00,,,0.23,,2013-02-28 14:00:00,
2013-02-28 08:42:00,25.0,-99.9,-100.00,NW,310,4.0,10.0,-999,0.00,,,0.23,,2013-02-28 14:42:00,
2013-02-28 08:52:00,25.0,-99.9,-100.00,NW,310,4.0,10.0,-999,0.00,,,0.23,,2013-02-28 14:52:00,
2013-02-28 09:00:00,27.0,-99.9,-100.00,NW,308,5.0,11.0,-999,0.00,,,0.23,,2013-02-28 15:00:00,
2013-02-28 09:42:00,27.0,-99.9,-100.00,NW,308,5.0,11.0,-999,0.00,,,0.23,,2013-02-28 15:42:00,
2013-02-28 09:53:00,27.0,-99.9,-100.00,NW,308,5.0,11.0,-999,0.00,,,0.23,,2013-02-28 15:53:00,
2013-02-28 10:00:00,27.0,-99.9,-100.00,NW,309,5.0,10.0,-999,0.00,,,0.23,,2013-02-28 16:00:00,
2013-02-28 10:43:00,27.0,-99.9,-100.00,NW,309,5.0,10.0,-999,0.00,,,0.23,,2013-02-28 16:43:00,
2013-02-28 10:53:00,27.0,-99.9,-100.00,NW,309,5.0,10.0,-999,0.00,,,0.23,,2013-02-28 16:53:00,
2013-02-28 11:00:00,28.0,-99.9,-100.00,NW,308,4.0,13.0,-999,0.00,,,0.23,,2013-02-28 17:00:00,
2013-02-28 11:42:00,28.0,-99.9,-100.00,NW,308,4.0,13.0,-999,0.00,,,0.23,,2013-02-28 17:42:00,
2013-02-28 11:53:00,28.0,-99.9,-100.00,NW,308,4.0,13.0,-999,0.00,,,0.23,,2013-02-28 17:53:00,
2013-02-28 12:00:00,29.0,-99.9,-100.00,WNW,300,4.0,8.0,-999,0.00,,,0.23,,2013-02-28 18:00:00,
2013-02-28 12:43:00,29.0,-99.9,-100.00,WNW,300,4.0,8.0,-999,0.00,,,0.23,,2013-02-28 18:43:00,
2013-02-28 12:53:00,29.0,-99.9,-100.00,WNW,300,4.0,8.0,-999,0.00,,,0.23,,2013-02-28 18:53:00,
2013-02-28 13:00:00,31.0,-99.9,-100.00,WNW,303,3.0,7.0,-999,0.03,,,0.26,,2013-02-28 19:00:00,
2013-02-28 13:42:00,31.0,-99.9,-100.00,WNW,303,3.0,7.0,-999,0.03,,,0.26,,2013-02-28 19:42:00,
2013-02-28 13:52:00,31.0,-99.9,-100.00,WNW,303,3.0,7.0,-999,0.03,,,0.26,,2013-02-28 19:52:00,
2013-02-28 14:00:00,32.0,-99.9,-100.00,NNW,327,4.0,16.0,-999,0.00,,,0.08,,2013-02-28 20:00:00,
2013-02-28 14:42:00,32.0,-99.9,-100.00,NNW,327,4.0,16.0,-999,0.00,,,0.08,,2013-02-28 20:42:00,
2013-02-28 14:52:00,32.0,-99.9,-100.00,NNW,327,4.0,16.0,-999,0.00,,,0.08,,2013-02-28 20:52:00,
2013-02-28 15:00:00,32.0,-99.9,-100.00,NW,315,4.0,14.0,-999,0.00,,,0.03,,2013-02-28 21:00:00,
2013-02-28 15:42:00,32.0,-99.9,-100.00,NW,315,4.0,14.0,-999,0.00,,,0.03,,2013-02-28 21:42:00,
2013-02-28 15:52:00,32.0,-99.9,-100.00,NW,315,4.0,14.0,-999,0.00,,,0.03,,2013-02-28 21:52:00,
2013-02-28 16:00:00,32.0,-99.9,-100.00,NW,317,4.0,8.0,-999,0.01,,,0.04,,2013-02-28 22:00:00,
2013-02-28 16:42:00,32.0,-99.9,-100.00,NW,317,4.0,8.0,-999,0.01,,,0.04,,2013-02-28 22:42:00,
2013-02-28 16:52:00,32.0,-99.9,-100.00,NW,317,4.0,8.0,-999,0.01,,,0.04,,2013-02-28 22:52:00,
2013-02-28 17:00:00,31.0,-99.9,-100.00,NW,310,4.0,10.0,-999,0.00,,,0.04,,2013-02-28 23:00:00,
2013-02-28 17:42:00,31.0,-99.9,-100.00,NW,310,4.0,10.0,-999,0.00,,,0.04,,2013-02-28 23:42:00,
2013-02-28 17:53:00,31.0,-99.9,-100.00,NW,310,4.0,10.0,-999,0.00,,,0.04,,2013-02-28 23:53:00,
2013-02-28 18:00:00,30.0,-99.9,-100.00,NW,318,3.0,9.0,-999,0.00,,,0.04,,2013-03-01 00:00:00,
2013-02-28 18:32:00,30.0,-99.9,-100.00,NW,318,3.0,9.0,-999,0.00,,,0.04,,2013-03-01 00:32:00,
2013-02-28 18:42:00,30.0,-99.9,-100.00,NW,318,3.0,9.0,-999,0.00,,,0.04,,2013-03-01 00:42:00,
2013-02-28 18:52:00,30.0,-99.9,-100.00,NW,318,3.0,9.0,-999,0.00,,,0.04,,2013-03-01 00:52:00,
2013-02-28 19:00:00,29.0,-99.9,-100.00,NW,325,4.0,14.0,-999,0.00,,,0.04,,2013-03-01 01:00:00,
2013-02-28 19:42:00,29.0,-99.9,-100.00,NW,325,4.0,14.0,-999,0.00,,,0.04,,2013-03-01 01:42:00,
2013-02-28 19:52:00,29.0,-99.9,-100.00,NW,325,4.0,14.0,-999,0.00,,,0.04,,2013-03-01 01:52:00,
2013-02-28 20:00:00,29.0,-99.9,-100.00,NW,320,4.0,7.0,-999,0.00,,,0.04,,2013-03-01 02:00:00,
2013-02-28 20:42:00,29.0,-99.9,-100.00,NW,320,4.0,7.0,-999,0.00,,,0.04,,2013-03-01 02:42:00,
2013-02-28 20:52:00,29.0,-99.9,-100.00,NW,320,4.0,7.0,-999,0.00,,,0.04,,2013-03-01 02:52:00,
2013-02-28 21:00:00,29.0,-99.9,-100.00,NW,323,4.0,14.0,-999,0.00,,,0.04,,2013-03-01 03:00:00,
2013-02-28 21:52:00,29.0,-99.9,-100.00,NW,323,4.0,14.0,-999,0.00,,,0.04,,2013-03-01 03:52:00,
2013-02-28 23:00:00,28.0,-99.9,-100.00,NW,326,4.0,8.0,-999,0.00,,,0.04,,2013-03-01 05:00:00,
2013-02-28 23:33:00,28.0,-99.9,-100.00,NW,326,4.0,8.0,-999,0.00,,,0.04,,2013-03-01 05:33:00,
2013-02-28 23:42:00,28.0,-99.9,-100.00,NW,326,4.0,8.0,-999,0.00,,,0.04,,2013-03-01 05:42:00,
2013-02-28 23:53:00,28.0,-99.9,-100.00,NW,326,4.0,8.0,-999,0.00,,,0.04,,2013-03-01 05:53:00,